This demonstration page uses our WeatherBlox Daily Observations layout. Learn more.

Left ArrowRight Arrow

Hourly Observations for February 21, 2019

Temp ( °F °C ) Dew Point ( °F °C ) Humidity (%) Winds ( mph kmh ) Pressure ( in mb ) Visibility ( mi km ) Precip ( " mm )
12:15 am 00:15 Clear 8 -13.2 6 -14.2 92 92 S 3 6 30.14 1021 10 16 N/A
12:35 am 00:35 Clear 7 -13.9 6 -14.6 95 95 N N/A 30.14 1021 10 16 N/A
12:55 am 00:55 Clear 7 -13.9 6 -14.7 94 94 N N/A 30.15 1021 10 16 N/A
1:15 am 01:15 Clear 2 -16.4 N/A 91 91 N N/A 30.18 1022 10 16 N/A
1:35 am 01:35 Clear 4 -15.8 1 -17.1 90 90 N N/A 30.17 1022 10 16 N/A
1:55 am 01:55 Clear 5 -14.8 3 -16.2 89 89 N N/A 30.17 1022 10 16 N/A
2:15 am 02:15 Clear 4 -15.6 N/A 85 85 SE 3 6 30.18 1022 10 16 N/A
2:35 am 02:35 Clear 9 -12.9 8 -13.4 96 96 SSE 5 7 30.16 1021 10 16 N/A
2:55 am 02:55 Clear 8 -13.4 7 -13.8 97 97 S 3 6 30.17 1022 10 16 N/A
3:15 am 03:15 Clear 8 -13.2 8 -13.6 97 97 S 3 6 30.17 1022 10 16 N/A
3:35 am 03:35 Clear 6 -14.6 4 -15.3 94 94 SSW 3 6 30.19 1022 10 16 N/A
3:55 am 03:55 Clear 6 -14.7 4 -15.6 93 93 S 6 9 30.20 1023 10 16 N/A
4:15 am 04:15 Clear 8 -13.6 6 -14.2 95 95 SSW 3 6 30.19 1022 10 16 N/A
4:35 am 04:35 Clear 7 -13.7 6 -14.2 96 96 N N/A 30.19 1022 10 16 N/A
4:55 am 04:55 Clear 3 -16.3 1 -17.2 93 93 N N/A 30.22 1023 10 16 N/A
5:15 am 05:15 Mostly Cloudy 1 -17.1 -1 -18.2 91 91 N N/A 30.24 1024 10 16 N/A
5:35 am 05:35 Cloudy 2 -16.5 N/A 91 91 N N/A 30.23 1024 10 16 N/A
5:55 am 05:55 Cloudy 3 -15.9 2 -16.9 92 92 N N/A 30.24 1024 10 16 N/A
6:15 am 06:15 Cloudy 5 -14.8 4 -15.7 93 93 N N/A 30.23 1024 10 16 N/A
6:35 am 06:35 Mostly Cloudy 7 -14.1 5 -14.9 94 94 N N/A 30.23 1024 10 16 N/A
6:55 am 06:55 Partly Cloudy 7 -14 5 -14.8 94 94 N N/A 30.24 1024 10 16 N/A
7:15 am 07:15 Clear 5 -14.8 4 -15.8 92 92 N N/A 30.24 1024 10 16 N/A
7:35 am 07:35 Mostly Cloudy 5 -15 3 -16 92 92 N N/A 30.26 1025 10 16 N/A
7:55 am 07:55 Mostly Cloudy 8 -13.5 6 -14.2 95 95 N N/A 30.25 1024 10 16 N/A
8:15 am 08:15 Mostly Cloudy 7 -14 5 -15 92 92 N N/A 30.27 1025 10 16 N/A
8:35 am 08:35 Cloudy 8 -13.5 6 -14.4 93 93 N 3 6 30.27 1025 10 16 N/A
9:15 am 09:15 Cloudy 12 -11.1 11 -11.8 95 95 N N/A 30.25 1024 10 16 N/A
9:35 am 09:35 Cloudy 14 -9.8 13 -10.4 95 95 N N/A 30.24 1024 10 16 N/A
9:55 am 09:55 Cloudy 17 -8.1 16 -8.9 94 94 NE 3 6 30.23 1024 10 16 N/A
10:15 am 10:15 Cloudy 19 -7.2 17 -8.5 91 91 N N/A 30.22 1023 10 16 N/A
10:35 am 10:35 Cloudy 22 -5.6 18 -7.7 85 85 ENE 8 13 30.19 1022 10 16 N/A
10:55 am 10:55 Cloudy 22 -5.7 19 -7.5 87 87 ENE 8 13 30.19 1022 10 16 N/A
11:15 am 11:15 Cloudy 23 -5 19 -7 86 86 ENE 8 13 30.18 1022 10 16 N/A
11:35 am 11:35 Cloudy 24 -4.4 20 -6.4 86 86 ENE 8 13 30.16 1021 10 16 N/A
11:55 am 11:55 Cloudy 26 -3.6 22 -5.5 87 87 ENE 10 17 30.15 1021 10 16 N/A
12:15 pm 12:15 Cloudy 28 -2.5 24 -4.7 85 85 ENE 14 22 30.14 1021 10 16 N/A
12:35 pm 12:35 Cloudy 28 -2 24 -4.4 84 84 ENE 13 20 30.12 1020 10 16 N/A
12:55 pm 12:55 Cloudy 30 -1.3 24 -4.5 79 79 ENE 15 24 30.11 1020 10 16 N/A
1:15 pm 13:15 Cloudy 30 -1.2 24 -4.5 79 79 E 10 17 30.10 1019 10 16 N/A
1:35 pm 13:35 Cloudy 30 -1.2 22 -5.4 73 73 E 14 22 30.10 1019 10 16 N/A
1:55 pm 13:55 Cloudy 30 -1.1 23 -5.2 74 74 ENE 15 24 30.10 1019 10 16 N/A
2:15 pm 14:15 Cloudy 30 -1 23 -5.1 74 74 E 14 22 30.08 1019 10 16 N/A
2:35 pm 14:35 Cloudy 30 -1 24 -4.6 77 77 E 16 26 30.07 1018 10 16 N/A
2:55 pm 14:55 Cloudy 30 -1 24 -4.4 78 78 E 16 26 30.07 1018 10 16 N/A
3:15 pm 15:15 Cloudy 30 -1 24 -4.3 79 79 E 17 28 30.09 1019 10 16 N/A
3:35 pm 15:35 Cloudy 30 -1.1 24 -4.2 80 80 E 15 24 30.11 1019 10 16 N/A
3:55 pm 15:55 Cloudy 30 -1.2 24 -4.5 79 79 E 12 19 30.11 1020 10 16 N/A
4:15 pm 16:15 Cloudy 30 -1.2 24 -4.4 79 79 E 15 24 30.11 1020 10 16 N/A
4:35 pm 16:35 Cloudy 30 -1.2 25 -4 82 82 E 17 28 30.11 1020 10 16 N/A
4:55 pm 16:55 Cloudy 30 -1.2 25 -4 82 82 E 18 30 30.10 1019 10 16 N/A
5:15 pm 17:15 Cloudy 29 -1.6 25 -3.9 85 85 E 21 33 30.11 1020 10 16 N/A
5:35 pm 17:35 Cloudy 29 -1.8 24 -4.4 83 83 E 16 26 30.13 1020 10 16 N/A
6:15 pm 18:15 Cloudy 28 -2.5 24 -4.5 86 86 E 20 31 30.14 1021 10 16 N/A
6:35 pm 18:35 Cloudy with Light Snow 28 -2.5 24 -4.4 87 87 E 14 22 30.16 1021 7 11 N/A
6:55 pm 18:55 Cloudy with Light Snow 27 -2.6 25 -4.1 90 90 ENE 15 24 30.17 1022 5 8 N/A
7:15 pm 19:15 Cloudy with Light Snow 27 -2.9 25 -4 92 92 E 15 24 30.19 1022 3 4 N/A
7:35 pm 19:35 Cloudy with Snow 26 -3.1 25 -4 94 94 E 14 22 30.20 1023 1 1 N/A
7:55 pm 19:55 Cloudy with Snow 26 -3.3 25 -3.8 96 96 E 15 24 30.20 1023 1 2 N/A
8:15 pm 20:15 Cloudy with Light Snow 26 -3.5 25 -3.7 99 99 E 15 24 30.20 1023 2 3 N/A
8:35 pm 20:35 Cloudy with Light Snow 26 -3.5 25 -3.8 98 98 E 15 24 30.19 1022 2 3 N/A
8:55 pm 20:55 Cloudy with Light Snow 26 -3.6 25 -3.9 98 98 E 16 26 30.20 1023 4 6 N/A
9:15 pm 21:15 Cloudy 25 -3.7 25 -4.1 97 97 E 14 22 30.21 1023 7 11 N/A
9:35 pm 21:35 Cloudy with Light Snow 25 -3.8 24 -4.7 94 94 E 17 28 30.21 1023 5 8 N/A
9:55 pm 21:55 Cloudy 25 -3.7 23 -5 91 91 E 14 22 30.21 1023 10 16 N/A
10:15 pm 22:15 Cloudy 26 -3.6 23 -5.1 89 89 E 14 22 30.22 1023 10 16 N/A
10:35 pm 22:35 Cloudy 26 -3.5 23 -5.1 89 89 E 15 24 30.23 1024 10 16 N/A
10:55 pm 22:55 Cloudy 26 -3.6 22 -5.5 87 87 E 12 19 30.24 1024 10 16 N/A
11:15 pm 23:15 Cloudy 25 -3.7 22 -5.6 87 87 E 12 19 30.24 1024 10 16 N/A
11:35 pm 23:35 Cloudy 25 -3.7 22 -5.7 86 86 E 13 20 30.24 1024 10 16 N/A
11:55 pm 23:55 Cloudy 25 -3.8 22 -5.7 87 87 E 15 24 30.23 1024 10 16 N/A

Powered by AerisWeather